Airfield :
LOGIN :

Register | Disclaimer

   EN    FR    IT 

 










Legend :    VFR   Marginal VFR   IFR   Intensive IFR   Very Intensive IFR
Visi :
Ceiling :
>= 8 km
>= 3000ft
5 to 8 km
1000 to 3000 ft
1500m to 5 km
500 to 1000 ft
800 to 1500m
200 to 500 ft
< 800m
< 200 ft
Symbols :   Thunderstorms  Fog  Heavy snow  Heavy precipitations  Wind > 20 kt
SIGMETs :     Misc.  Thunderstorms  Icing  Turbulence  Mountain Waves  Volcanic Ashes







- Airport Elevation : 640 ft
- IATA code : AOC


EDAC - Altenburg-Nobitz

CURRENT METAR :
  • 230750Z 23009KT 9999 FEW012 07/04 Q1022

EXPIRED METARs :
  • 230720Z 22011KT CAVOK 06/03 Q1022
  • 230650Z AUTO 21009KT 9999 // FEW160/// 06/03 Q1022
  • 230620Z AUTO 20008KT 9999 // SCT150/// BKN240/// 06/03 Q1023
  • 230550Z AUTO 21008KT 9999 // FEW220/// 05/03 Q1023
  • 230520Z AUTO 21009KT 9999 // BKN220/// 05/03 Q1024

Expired Forecast.
No reported NOTAMs for that airfield.



MET'MAP, your aeronautical weather chart ! - Copyright ORBIFLY December 2007 - Disclaimer

ORBIFLY MET'MAP TEAM :

Programming & Development : Alexandra Zaïnal
Concept & Development : Baudouin d'Aumeries
Co-Development & Prog : Marc-Olivier Méhu
Technical & hardware support : Manuel Goepfert

Contact : metmap@orbifly.com




SOURCES & CREDITS :

   NOAA